Regional Weather Roundup
Issued by NWS Sterling, VA

Home | Current Version | Previous Version | Graphics & Text | Print | Product List | Glossary On
Versions: 1 2 3 4 5 6 7 8 9 10 11 12 13 14 15 16 17 18 19 20 21 22 23 24 25 26 27 28 29 30 31 32 33 34 35 36 37 38 39 40 41 42 43 44 45 46 47 48 49 50
000
ASUS41 KLWX 292010
RWRLWX

REGIONAL WEATHER ROUNDUP
NATIONAL WEATHER SERVICE BALTIMORE MD/WASHINGTON DC
400 PM EDT MON SEP 29 2014

Note: "FAIR" indicates few or no clouds below 12,000 feet
with no significant weather and/or obstructions to visibility.
 TC=TEMPERATURE CELSIUS

 * =Non NWS site. Station does not report precipitation (e.g. rain,
    snow, etc.), thunder, or fog.

DCZ001-MDZ009-015-VAZ040>042-051-053>054-292100-
WASHINGTON METRO

CITY           SKY/WX    TMP DP  RH WIND       PRES   REMARKS
WASHINGTON NAT CLOUDY    73  62  68 S7        29.95F
DULLES         CLOUDY    70  61  73 S5        29.94F
ANDREWS AFB    CLOUDY    72  63  74 SW6       29.94F
QUANTICO       CLOUDY    70  64  81 SW6       29.95F
LEESBURG*      CLOUDY    72  64  78 SW3       29.95F
MANASSAS*      CLOUDY    70  64  83 S3        29.95F
GAITHERSBURG*  CLOUDY    70  63  78 W5        29.98F

$$

MDZ006>007-011-014-292100-
BALTIMORE METRO

CITY           SKY/WX    TMP DP  RH WIND       PRES   REMARKS
BWI AIRPORT    LGT RAIN  69  64  84 CALM      29.93F
MD SCIENCE CTR   N/A     72  64  76 MISG      29.94F
MARTIN STATE   PTSUNNY   70  70 100 CALM      29.95F FOG
ANNAPOLIS        N/A     70  65  84 VRB3      29.94S
FORT MEADE*    CLOUDY    70  63  78 CALM      29.96F

$$

MDZ012-015-019>023-292100-
MARYLAND EASTERN SHORE

CITY           SKY/WX    TMP DP  RH WIND       PRES   REMARKS
OCEAN CITY     CLOUDY    73  64  73 VRB3      29.94F
SALISBURY      CLOUDY    77  60  55 NW5       29.94F
BAY BRIDGE AP* LGT RAIN  68  64  88 S5        29.95S
CAMBRIDGE*     CLOUDY    72  64  78 CALM      29.95S
EASTON*        LGT RAIN  73  66  78 W5        29.98F

$$

MDZ017>025-292100-
SOUTHERN MARYLAND

CITY           SKY/WX    TMP DP  RH WIND       PRES   REMARKS
PATUXENT RIVER CLOUDY    69  63  81 SW3       29.95F
ST INIGOES     LGT RAIN  70  61  73 SW5       29.95F
LEONARDTOWN*   CLOUDY    68  61  77 SW3       29.96F

$$

MDZ003>005-292100-
NORTH CENTRAL MARYLAND

CITY           SKY/WX    TMP DP  RH WIND       PRES   REMARKS
FREDERICK*     NOT AVBL
HAGERSTOWN APT CLOUDY    75  58  55 CALM      29.94F
WESTMINSTER*   CLOUDY    72  63  73 CALM      29.95S

$$

MDZ501>502-292100-
WESTERN MARYLAND

CITY           SKY/WX    TMP DP  RH WIND       PRES   REMARKS
OAKLAND*       CLOUDY    68  48  49 SW5       30.02F
CUMBERLAND*    NOT AVBL

$$

VAZ025>031-292100-
SHENANDOAH VALLEY

CITY           SKY/WX    TMP DP  RH WIND       PRES   REMARKS
WINCHESTER*    CLOUDY    73  55  53 W3        29.95F
STAUNTON*      CLOUDY    74  53  47 CALM      29.99S

$$

WVZ021-048>050-054>055-292100-
EASTERN WEST VIRGINIA PANHANDLE

CITY           SKY/WX    TMP DP  RH WIND       PRES   REMARKS
MARTINSBURG    CLOUDY    75  58  55 SE3       29.94F
PETERSBURG*    CLOUDY    74  53  47 E3        29.97S

$$

VAZ036>039-050-292100-
CENTRAL FOOTHILLS

CITY           SKY/WX    TMP DP  RH WIND       PRES   REMARKS
CHARLOTTESVILL CLOUDY    71  64  78 CALM      29.96F
ORANGE*        CLOUDY    70  64  83 CALM      29.97F

$$

VAZ055>057-292100-
NORTH AND CENTRAL PIEDMONT

CITY           SKY/WX    TMP DP  RH WIND       PRES   REMARKS
FREDERICKSBRG* CLOUDY    72  64  77 SW5       29.94F
STAFFORD*      CLOUDY    70  68  95 SW3       29.99F

$$

NCZ024-NYZ072-PAZ021-071-VAZ022-071-292100-
OTHER REGIONAL OBSERVATIONS

CITY           SKY/WX    TMP DP  RH WIND       PRES   REMARKS
NEW YORK CITY  CLOUDY    78  56  46 CALM      29.94F
PHILADELPHIA   CLOUDY    73  61  65 SW7       29.93F
PITTSBURGH     MOSUNNY   79  56  45 W7        29.93F
ROANOKE        PTSUNNY   73  59  61 CALM      29.99F
RICHMOND       CLOUDY    71  63  75 CALM      29.96F
RALEIGH        LGT RAIN  68  64  87 CALM      29.99S

$$

ANZ530>537-292100-
MARINE OBSERVATIONS

STATION/POSITION TIME  TEMP    WIND        PRES
                       AIR SEA DIR/SP/G
                 (UTC) (F)     (DEG/KT/KT) (MB)
THOMAS PT LIGHT  2000   69 71  190/  8/  9 1014.9F
BALT KEY BRIDGE  2000   71     230/  5/  6 1013.5F
COVE POINT       2000   68     200/  5/  6 1014.0F
LEWISETTA        2000   69 71  210/  2/  2 1013.9F
SOLOMONS ISLAND  2000      72                N/A
PINEY POINT      2000          250/  2/  3   N/A

$$




USA.gov is the U.S. government's official web portal to all federal, state and local government web resources and services.